Flag for Germany Weather past 2 weeks in Saarbrücken, Saarland, Germany

Now
45 °F

Fog.


Feels Like: 38 °F
Forecast: 39 / 49 °F
Wind: 13 mph from Southwest

Location: Saarbruecken / Ensheim

Current Time: Dec 18, 2014 at 6:49:07 AM

Latest Report: Dec 18, 2014 at 6:20 AM


Visibility: 2 mi

Pressure: 29.95 "Hg

Humidity: 100%

Dew point: 45 °F

Location of SaarbrückenLocation

Historic Weather in Saarbrücken — Graph

°F

Saarbrücken temperature yesterday

Maximum temperature yesterday: 43 °F (at 8:20 PM)
Minimum temperature yesterday: 36 °F (at 2:20 AM)
Average temperature yesterday: 38 °F

Past Weeks' High & Low Weather Summary

 TemperatureHumidityPressure
High48 °F (Dec 12, 9:20 PM)100% (Dec 3, 5:20 AM)30.39 "Hg (Dec 3, 5:20 AM)
Low32 °F (Dec 3, 5:20 AM)70% (Dec 7, 1:50 PM)29.65 "Hg (Dec 12, 4:50 PM)
Average39 °F94%30.02 "Hg
* Reported Dec 3 5:20 AM — Dec 18 5:50 AM, Saarbrücken, Weather by CustomWeather, © 2014

Note: Actual official high and low records may vary slightly from our data, if they occured in-between our weather recording intervals... More about our weather records

Advertising

Saarbrücken weather history for previous 24 hours

 ConditionsComfort  
Time TempWeatherWind HumidityBarometerVisibility
5:50 AM
Dec 18
45 °FDrizzle. Fog.14 mph100%29.95 "Hg1 mi
5:20 AM45 °FDrizzle. Fog.14 mph100%29.95 "Hg1 mi
4:20 AM45 °FDrizzle. Fog.13 mph93%29.95 "Hg1 mi
3:50 AM45 °FDrizzle. Fog.13 mph93%29.95 "Hg1 mi
3:20 AM45 °FDrizzle. Fog.12 mph93%29.95 "Hg0 mi
2:50 AM43 °FDrizzle. Fog.12 mph100%29.95 "Hg0 mi
2:20 AM43 °FFog.9 mph100%29.95 "Hg0 mi
1:50 AM43 °FDrizzle. Fog.12 mph100%29.95 "Hg1 mi
1:20 AM43 °FDrizzle. Fog.13 mph100%29.95 "Hg1 mi
12:50 AM43 °FDrizzle. Fog.13 mph100%29.95 "Hg1 mi
12:20 AM43 °FFog.12 mph100%29.95 "Hg1 mi
11:20 PM
Dec 17
43 °FDrizzle. Fog.10 mph100%29.92 "Hg1 mi
10:50 PM43 °FDrizzle. Fog.8 mph100%29.92 "Hg1 mi
10:20 PM43 °FFog.13 mph100%29.92 "Hg1 mi
9:50 PM43 °FFog.8 mph100%29.89 "Hg1 mi
9:20 PM43 °FFog.10 mph100%29.89 "Hg1 mi
8:50 PM41 °FFog.10 mph100%29.89 "Hg1 mi
8:20 PM43 °FFog.12 mph93%29.86 "Hg1 mi
7:50 PM41 °FFog.13 mph100%29.86 "Hg1 mi
7:20 PM41 °FDrizzle. Fog.12 mph100%29.86 "Hg1 mi
6:50 PM41 °FFog.10 mph100%29.83 "Hg2 mi
6:20 PM41 °FDrizzle. Fog.12 mph100%29.83 "Hg2 mi
5:50 PM41 °FDrizzle. Fog.13 mph100%29.80 "Hg2 mi
5:20 PM41 °FDrizzle. Fog.13 mph100%29.80 "Hg2 mi
4:50 PM41 °FDrizzle. Fog.14 mph93%29.80 "Hg1 mi
4:20 PM41 °FDrizzle. Fog.14 mph93%29.77 "Hg1 mi
3:50 PM39 °FLight rain. Fog.15 mph100%29.77 "Hg2 mi
3:20 PM39 °FLight rain. Partly sunny.16 mph100%29.74 "Hg4 mi
2:50 PM39 °FLight rain. Partly sunny.16 mph100%29.74 "Hg4 mi
2:20 PM39 °FLight rain. Fog.18 mph93%29.74 "Hg3 mi
1:50 PM37 °FLight rain. Partly sunny.17 mph100%29.74 "Hg5 mi
1:20 PM37 °FDrizzle. Partly sunny.18 mph100%29.77 "Hg4 mi
12:50 PM37 °FDrizzle. Fog.20 mph93%29.77 "Hg2 mi
12:20 PM37 °FDrizzle. Fog.17 mph93%29.80 "Hg2 mi
11:50 AM37 °FLight rain. Partly sunny.17 mph93%29.80 "Hg4 mi
11:20 AM37 °FLight rain. Partly sunny.20 mph93%29.80 "Hg4 mi
10:50 AM36 °FLight rain. Fog.17 mph100%29.83 "Hg3 mi
10:20 AM36 °FMostly cloudy.18 mph100%29.86 "Hg4 mi
9:50 AM36 °FMore clouds than sun.15 mph93%29.86 "Hg4 mi
9:20 AM36 °FMore clouds than sun.16 mph93%29.86 "Hg5 mi
8:50 AM37 °FMore clouds than sun.14 mph87%29.89 "Hg5 mi
8:20 AM36 °FPassing clouds.15 mph93%29.89 "HgN/A
7:50 AM36 °FPassing clouds.15 mph93%29.89 "HgN/A
7:20 AM36 °FPassing clouds.15 mph93%29.92 "HgN/A
6:50 AM36 °FPassing clouds.14 mph93%29.92 "HgN/A
6:20 AM36 °FPassing clouds.13 mph93%29.92 "HgN/A
Weather by CustomWeather, © 2014

See weather overviewHow to use our weather pages